Powrót do katalogu

STARLINK-36573

AktywnyŁącznośćSSO
NORAD 67539·PAYLOAD·🇺🇸 United States

Wystrzelony Jan 22, 2026 z Vandenberg Space Force Base

Loading…

Następne Przeloty (najbliższe 24 godziny)

TLE

ŚwieżeSource: CelesTrak SupGP

Epoka: Sep 15, 2026, 03:19 UTC

1 67539C 26014H   26258.13868056  .00064323  00000+0  19961-2 0  2586
2 67539  97.2845 143.5724 0001921  99.6248 348.7291 15.33416186    17

Śledź STARLINK-36573 w czasie rzeczywistym z AllMySat

Download on the App Store